ATLAS 5 CENTAUR DEB, 44674

Orbit data source: Space-Track

ATLAS 5 CENTAUR DEB, 44674 is space debris in HEO originally from a launch on Wed, 17 Oct 2018 UTC launched from the Air Force Eastern Test Range (AFETR). Debris objects in space refer to the collection of defunct objects orbiting the Earth. Examples of debris include non-operational satellites, rocket bodies, and fragments generated from explosions, collisions, or faulty payload assembly.

Loading next visibility...
Identifier
44674, 2018-079AL
Orbit
HEO
Country
Flag of USUS
Related business
Flag of USUnited Launch Alliance/Lockheed Martin (US)
Manufacturer
ULA Decatur
Mission
Spacecraft
Bus & Motor
Unknown
Mass
Unknown
Launch date (UTC)
2018-10-17 (7 years ago)
Launch vehicle
Unknown
Launch site
Air Force Eastern Test Range (AFETR)
Object type
Payload
Rocket body
Debris
Shape & HBR
Unknown
Radar Cross Section
RCS unknown

Expand to show TLE details & history
Last TLE update: 2 days ago

TLE from 2 days ago
0 ATLAS 5 CENTAUR DEB
1 44674U 18079AL  25258.34851320 -.00000184  00000-0  00000-0 0  9992
2 44674  12.6682  61.2926 4336793 286.3827  31.2311  1.93742458 44214
Epoch: 2025-09-15T08:21Z
TLE epoch observation values (Epoch: 2025-09-15T08:21:51.54Z)
Latitude
-0.00008°
Longitude
-58.66397°
Altitude
13,269.579 km
Speed
5.09 km/s
True Right ascension
04h 05m 25s
True Declination
0° 00' 00"
Sunlit
Object was in daylight at epoch
Visualization orbit readout
Latitude
Unknown
Longitude
Unknown
Altitude
Unknown
Speed
Unknown
Apparent Right ascension
Unknown
Apparent Declination
Unknown
Sunlit
N/A
Visualization observer readout
Local Sidereal Time
21:35:44
Azimuth
Unknown
Elevation
Unknown
Doppler factor
Unknown
Orbital elements
Apogee altitude
32,592.463 km
Perigee altitude
9,015.722 km
Semi-major axis
27,182.229 km
Eccentricity
0.43368
Inclination
12.6682°
RAAN
61.2926°
Arg. of periapsis
286.3827°
True anomaly
73.60522°
Mean anomaly
31.2311°
Eccentric anomaly
50.36794°
Mean motion
0.4843 °/min
Orbital period
743.34 mins
BSTAR
0
Loading maneuver chart data...
Computing Atmospheric mass density...

Documentation

Showing up to 5 results
|